Regional Weather Roundup
Issued by NWS

Home | Current Version | Previous Version | Text Only | Print | Product List | Glossary Off
Versions: 1 2 3 4 5 6 7 8 9 10 11 12 13 14 15 16 17 18 19 20 21 22 23 24 25 26 27 28 29 30 31 32 33 34 35 36 37 38 39 40 41 42 43 44 45 46 47 48 49 50

000
ASUS43 KMKX 011111
RWRWI

WISCONSIN REGIONAL WEATHER ROUNDUP
NATIONAL WEATHER SERVICE MILWAUKEE/SULLIVAN WI
600 AM CDT SAT AUG 01 2015

NOTE: "FAIR" INDICATES FEW OR NO CLOUDS BELOW 12,000 FEET WITH NO
SIGNIFICANT WEATHER AND/OR OBSTRUCTIONS TO VISIBILITY.

WIZ001-002-006>008-014>016-023>028-011200-
NORTHWEST WISCONSIN

CITY           SKY/WX    TMP DP  RH WIND       PRES   REMARKS
SUPERIOR ARPT  CLEAR     48  47  96 CALM      29.94S
ASHLAND        CLEAR     52  50  93 SW3       29.93R
HAYWARD        CLEAR     48  45  89 CALM      29.97R
SIREN          CLEAR     50  48  91 CALM      29.96S
CUMBERLAND     CLEAR     52  50  93 CALM      29.97F
RICE LAKE      PTCLDY    53  52  95 CALM      29.99S
CHETEK         MOCLDY    55  54  95 CALM      29.97S
LADYSMITH      CLEAR     55  50  84 SW3       29.98S
EAU CLAIRE     MOCLDY    61  56  83 CALM      29.96F
MENOMONIE      MOCLDY    61  58  90 CALM      29.97F
NEW RICHMOND   MOCLDY    60  58  94 CALM      29.97S
OSCEOLA        MOCLDY    60  60 100 CALM      29.99S
$$

WIZ003>005-009-010-017-018-011200-
NORTH CENTRAL WISCONSIN

CITY           SKY/WX    TMP DP  RH WIND       PRES   REMARKS
MANITOWISH WTR CLEAR     51  50  99 W5        29.93S
ARBOR VITAE    CLEAR     57  53  88 CALM      29.93S
WOODRUFF       CLEAR     57  53  88 CALM      29.93S
RHINELANDER    CLEAR     50  48  93 W8        29.94S
EAGLE RIVER    CLEAR     52  52 100 W8        29.92R
LAND O LAKES   CLEAR     54  52  94 W5        29.93R
PHILLIPS       CLEAR     51  50  95 CALM      29.95S
TOMAHAWK       CLEAR     50  48  93 CALM      29.94F
MEDFORD        CLEAR     51  49  94 CALM      29.96S
MERRILL        NOT AVBL
$$

WIZ029-030-035-036-043>047-011200-
CENTRAL WISCONSIN

CITY           SKY/WX    TMP DP  RH WIND       PRES   REMARKS
WAUSAU         CLEAR     58  51  78 W8        29.94S
MOSINEE        CLEAR     55  52  88 W7        29.96S
MARSHFIELD     CLOUDY    57  50  77 W6        29.96F
STEVENS POINT  CLEAR     58  51  78 W5        29.96S
WAUPACA        FAIR      60  53  76 W5        29.94S
WAUTOMA        CLEAR     53  51  93 CALM      29.96S
WISC RAPIDS    MOCLDY    58  51  78 NW6       29.97S
CAMP DOUGLAS   PTCLDY    58  58 100 W6        29.97R
$$

WIZ011>013-019>022-031-037>040-048>050-011200-
NORTHEAST WISCONSIN

CITY           SKY/WX    TMP DP  RH WIND       PRES   REMARKS
ANTIGO         CLEAR     51  50  96 W5        29.95R
SHAWANO        CLEAR     59  53  82 W6        29.92S
OCONTO         CLEAR     56  56 100 W5        29.89S
STURGEON BAY   CLEAR     59  54  82 W5        29.91S
GREEN BAY      CLEAR     58  53  84 W8        29.92S
MANITOWOC      CLEAR     62  55  77 MISG      29.92S
APPLETON       PTCLDY    57  50  77 W9        29.94S
CLINTONVILLE   CLEAR     57  52  82 W6        29.92S
OSHKOSH        CLEAR     60  51  72 W6        29.93F
$$

WIZ032>034-041-042-053>061-011200-
SOUTHWEST WISCONSIN

CITY           SKY/WX    TMP DP  RH WIND       PRES   REMARKS
LA CROSSE      MOCLDY    64  59  83 S5        29.97F
SPARTA         PTCLDY    52  50  93 CALM      29.99R
VIROQUA        MOCLDY    60  56  87 W3        30.00S
BOSCOBEL       CLOUDY    60  58  92 CALM      30.00R
PRAIRIE DU CHI CLOUDY    60  56  88 CALM      30.00S
PLATTEVILLE    CLEAR     60  58  94 CALM      30.01S
$$

WIZ056-057-062-063-064-067-068-011200-
SOUTH CENTRAL WISCONSIN

CITY           SKY/WX    TMP DP  RH WIND       PRES   REMARKS
REEDSBURG      CLEAR     54  53  94 CALM      29.98R
BARABOO/DELLS  PTCLDY    58  53  82 CALM      29.98R
LONE ROCK      PTCLDY    54  52  93 CALM      30.00S
MINERAL POINT  MOCLDY    61  57  88 SW3       30.00S
MADISON        PTCLDY    63  54  72 VRB3      29.97S
MIDDLETON      CLEAR     61  56  85 W8        29.99S
WATERTOWN      CLEAR     54  54 100 CALM      29.96S
MONROE         CLEAR     61  55  82 W12       30.00S
JANESVILLE     PTCLDY    57  54  88 CALM      29.98S
$$

WIZ051-052-058>065-066-070>072-011200-
SOUTHEAST WISCONSIN

CITY           SKY/WX    TMP DP  RH WIND       PRES   REMARKS
MILWAUKEE      CLEAR     66  51  58 W7        29.96S
WAUKESHA       CLEAR     57  50  77 W5        29.98S
MILWAUKEE/TIMM CLEAR     59  50  72 SW3       29.97S
RACINE         CLEAR     62  52  69 W6        29.98S
BURLINGTON     CLEAR     54  51  89 S5        29.98R
KENOSHA        CLEAR     59  52  77 W7        29.97S
FOND DU LAC    CLEAR     59  52  77 SW7       29.94F
SHEBOYGAN      CLEAR     61  52  72 W8        29.93S
WEST BEND      CLEAR     61  50  67 W6        29.95S
JUNEAU         CLEAR     55  51  87 CALM      29.97S
$$

LSZ147-162-011200-
LAKE SUPERIOR

STATION/POSITION TIME  TEMP    WIND        PRES    WAVE
                       AIR SEA DIR/SP/G            HT/PER
                 (UTC) (F)     (DEG/KT/KT) (MB)    (FT/S)
W MID LAKE BUOY  1050   57 54  260/ 12/ 14 1011.2R   1/ 3
DEVILS ISLAND    1100   60     240/ 12/ 13 1012.6R
PORT WING        1000   61     230/  7/  8 1013.5S
SAXON HARBOR     1040   58                 1012.5R
$$

LMZ867-665-643>646-011200-
LAKE MICHIGAN

STATION/POSITION TIME  TEMP    WIND        PRES    WAVE
                       AIR SEA DIR/SP/G            HT/PER
                 (UTC) (F)     (DEG/KT/KT) (MB)    (FT/S)
CHAMBERS ISLAND  1000   64     240/  3/  9 1011.5S
S GREEN BAY BUOY 1100   62 68  270/ 12/ 14 1013.5
N MID LAKE BUOY  1050   66 68  280/ 12/ 14 1010.5R   2/ 4
NORTHPORT PIER   1000   67     280/  5/ 12 1011.2S
SISTER BAY       1029   66     300/ 15/ 16   N/A
ALGOMA LAKESHORE 1012           CALM  /  3   N/A
KEWAUNEE LAKESHO 1000   61     280/  4/  5 1011.9R
SHEBOYGAN LAKESH 1100   65     270/ 10/ 12 1013.3F
PORT WASHINGTON  1000   66     280/  7/  9 1014.2F
ATWATER BUOY     1100   65 63  260/ 10/ 14 1015.4R
MILWAUKEE LAKESH 1000   68     280/ 10/ 13   N/A
KENOSHA   LAKESH 1100   65     280/ 10/ 13 1014.6R
$$

TC  - TEMPERATURE IN CELSIUS
VSB - VISIBILITY IN STATUTE MILES
WCI - WIND CHILL INDEX
HX  - HEAT INDEX




USA.gov is the U.S. government's official web portal to all federal, state and local government web resources and services.